Hourly Data Report for October 06, 2015

All times are specified in Local Standard Time (LST). Add 1 hour to adjust for Daylight Saving Time where and when it is observed.

KUGLUKTUK A
NUNAVUT

67°49'00.000" N
115°08'38.000" W
22.60 m
2300903
71938
YCO

Download Data

Hourly Data (October 2015)
Hourly Data Report for October 6, 2015
Temp Definition
°C
Dew Point Temp Definition
°C
Rel Hum Definition
%
Wind Dir Definition
10's deg

Wind Spd Definition
km/h
Visibility Definition
km
Stn Press Definition
kPa
Hmdx Definition


Wind Chill Definition


Weather Definition


TIME
00:00 Legend Double Dagger -3.7 -6.3 82 26 28 24.1 101.04   -11 LegendNANA
01:00 Legend Double Dagger -4.7 -7.0 84 27 26 24.1 101.06   -12 LegendNANA
02:00 Legend Double Dagger -5.2 -7.0 87 28 22 24.1 101.13   -12 Mainly Clear
03:00 Legend Double Dagger -5.1 -6.6 89 27 18 16.1 101.18   -11 Snow Grains
04:00 Legend Double Dagger -5.0 -7.3 84 28 17 16.1 101.23   -11 LegendNANA
05:00 Legend Double Dagger -5.1 -7.9 81 27 17 24.1 101.26   -11 Mainly Clear
06:00 Legend Double Dagger -5.2 -7.0 87 27 15 24.1 101.27   -11 LegendNANA
07:00 Legend Double Dagger -5.6 -7.6 86 26 19 24.1 101.28   -12 LegendNANA
08:00 Legend Double Dagger -5.6 -7.4 87 27 22 24.1 101.30   -13 Mainly Clear
09:00 Legend Double Dagger -5.1 -7.7 82 27 22 24.1 101.31   -12 LegendNANA
10:00 Legend Double Dagger -4.1 -8.6 71 27 21 24.1 101.33   -11 LegendNANA
11:00 Legend Double Dagger -3.8 -9.1 67 28 22 24.1 101.32   -10 Mostly Cloudy
12:00 Legend Double Dagger -2.8 -9.1 62 28 22 24.1 101.31   -9 LegendNANA
13:00 Legend Double Dagger -2.0 -9.2 58 27 21 24.1 101.31   -8 LegendNANA
14:00 Legend Double Dagger -1.5 -9.4 55 27 20 24.1 101.31   -7 Mostly Cloudy
15:00 Legend Double Dagger -0.9 -10.1 50 28 19 24.1 101.30   -6 LegendNANA
16:00 Legend Double Dagger -2.4 -9.6 58 30 17 24.1 101.30   -8 LegendNANA
17:00 Legend Double Dagger -3.3 -9.6 62 27 13 24.1 101.28   -8 Mainly Clear
18:00 Legend Double Dagger -4.5 -9.4 69 27 16 24.1 101.26   -10 LegendNANA
19:00 Legend Double Dagger -5.6 -9.0 77 24 16 24.1 101.25   -12 LegendNANA
20:00 Legend Double Dagger -6.0 -9.4 77 25 18 24.1 101.24   -12 Mainly Clear
21:00 Legend Double Dagger -6.3 -10.6 72 25 21 24.1 101.24   -13 LegendNANA
22:00 Legend Double Dagger -7.1 -11.2 73 26 23 24.1 101.23   -15 LegendNANA
23:00 Legend Double Dagger -8.9 -10.8 86 23 19 24.1 101.22   -16 Clear

Notes on Data Quality.

Legend

  • E = Estimated
  • M = Missing
  • NA = Not Available
  • ‡ = Partner data that is not subject to review by the National Climate Archives
Date modified: